BAW618 EGLL-LICJ

Flight info

Callsign BAW618
Flight time N/A
Altitude 37000
Route MODMI M185 MID L612 BOGNA UL612 OGULO DCT OKASI DCT OKEKO DCT MOU DCT MADIV/N0440F390 DCT MOKIP DCT TUFTA DCT KOGAS DCT MEDAM DCT NITAM DCT MOGBO DCT ENOBA DCT OLETI DCT KONER
Aircraft A320/M-SDE3FGIJ1KRWXY/SB1

Departure

Time N/A
Airport London Heathrow Airport (EGLL)

Arrival

Time 2026-04-29 12:21
Airport Falcone–Borsellino Airport (LICJ)
Time Latitude Longitude Altitude Speed Heading
2026-04-29 11:51 40.63538 11.38925 37046 ft 456 kts 158°
2026-04-29 11:51 40.57793 11.42473 37046 ft 457 kts 158°
2026-04-29 11:52 40.52033 11.46016 37047 ft 457 kts 158°
2026-04-29 11:52 40.46267 11.49554 37046 ft 457 kts 158°
2026-04-29 11:53 40.40537 11.53062 37046 ft 458 kts 158°
2026-04-29 11:53 40.34765 11.56592 37047 ft 458 kts 158°
2026-04-29 11:54 40.28991 11.60112 37048 ft 457 kts 158°
2026-04-29 11:54 40.23221 11.63624 37055 ft 457 kts 158°
2026-04-29 11:55 40.17450 11.67125 37056 ft 457 kts 158°
2026-04-29 11:55 40.11716 11.70606 37052 ft 458 kts 158°
2026-04-29 11:56 40.05936 11.74104 37059 ft 458 kts 158°
2026-04-29 11:56 40.00155 11.77598 37047 ft 458 kts 158°
2026-04-29 11:57 39.94370 11.81086 37053 ft 458 kts 158°
2026-04-29 11:57 39.88625 11.84551 37057 ft 458 kts 158°
2026-04-29 11:58 39.82839 11.88027 37047 ft 458 kts 158°
2026-04-29 11:58 39.77055 11.91493 37053 ft 458 kts 158°
2026-04-29 11:59 39.71270 11.94952 37058 ft 458 kts 158°
2026-04-29 11:59 39.65522 11.98383 37063 ft 458 kts 158°
2026-04-29 12:00 39.59736 12.01838 37051 ft 458 kts 159°
2026-04-29 12:00 39.53949 12.05289 37060 ft 458 kts 159°
2026-04-29 12:01 39.48155 12.08729 37050 ft 459 kts 159°
2026-04-29 12:01 39.45289 12.10430 36742 ft 460 kts 159°
2026-04-29 12:01 39.42353 12.12170 35774 ft 468 kts 158°
2026-04-29 12:02 39.39379 12.13931 34954 ft 472 kts 158°
2026-04-29 12:02 39.36389 12.15703 34180 ft 473 kts 158°
2026-04-29 12:02 39.33402 12.17469 33147 ft 470 kts 158°
2026-04-29 12:02 39.30421 12.19234 31627 ft 473 kts 158°
2026-04-29 12:03 39.27454 12.20990 30663 ft 463 kts 157°
2026-04-29 12:03 39.24540 12.22710 29451 ft 458 kts 157°
2026-04-29 12:03 39.21665 12.24400 28329 ft 449 kts 157°
2026-04-29 12:03 39.18883 12.26035 27345 ft 442 kts 157°
2026-04-29 12:04 39.16094 12.27678 26731 ft 442 kts 157°
2026-04-29 12:04 39.13298 12.29325 25983 ft 442 kts 158°
2026-04-29 12:04 39.10505 12.30963 25242 ft 440 kts 158°
2026-04-29 12:04 39.07719 12.32589 24508 ft 439 kts 158°
2026-04-29 12:05 39.04941 12.34212 23767 ft 438 kts 158°
2026-04-29 12:05 39.02171 12.35834 22961 ft 436 kts 158°
2026-04-29 12:05 38.99428 12.37445 22241 ft 432 kts 158°
2026-04-29 12:05 38.96709 12.39042 21529 ft 428 kts 158°
2026-04-29 12:06 38.94012 12.40619 20825 ft 424 kts 158°
2026-04-29 12:06 38.91371 12.42157 20143 ft 421 kts 158°
2026-04-29 12:06 38.88712 12.43704 19490 ft 418 kts 158°
2026-04-29 12:06 38.86069 12.45239 19141 ft 417 kts 158°
2026-04-29 12:07 38.83426 12.46797 18793 ft 418 kts 157°
2026-04-29 12:07 38.80770 12.48389 17612 ft 426 kts 157°
2026-04-29 12:07 38.78087 12.50017 16685 ft 426 kts 156°
2026-04-29 12:07 38.75421 12.51638 15856 ft 423 kts 156°
2026-04-29 12:08 38.72810 12.53225 15061 ft 407 kts 156°
2026-04-29 12:08 38.70305 12.54747 14334 ft 391 kts 156°
2026-04-29 12:08 38.67891 12.56206 13643 ft 389 kts 156°
2026-04-29 12:08 38.65449 12.57670 12920 ft 386 kts 156°
2026-04-29 12:09 38.63031 12.59112 12243 ft 381 kts 157°
2026-04-29 12:09 38.60643 12.60535 11566 ft 377 kts 156°
2026-04-29 12:09 38.58280 12.61944 10953 ft 372 kts 156°
2026-04-29 12:09 38.55988 12.63316 10789 ft 354 kts 157°
2026-04-29 12:10 38.53812 12.64617 10674 ft 338 kts 157°
2026-04-29 12:10 38.51730 12.65860 10542 ft 323 kts 157°
2026-04-29 12:10 38.49729 12.67054 10431 ft 311 kts 157°
2026-04-29 12:10 38.47830 12.68185 10320 ft 300 kts 157°
2026-04-29 12:11 38.45968 12.69295 10142 ft 292 kts 157°
2026-04-29 12:11 38.44150 12.70377 9998 ft 285 kts 157°
2026-04-29 12:11 38.42347 12.71443 9811 ft 287 kts 158°
2026-04-29 12:11 38.40536 12.72518 9381 ft 287 kts 157°
2026-04-29 12:12 38.38727 12.73596 9004 ft 286 kts 157°
2026-04-29 12:12 38.36933 12.74670 8643 ft 284 kts 156°
2026-04-29 12:12 38.35146 12.75740 8270 ft 283 kts 156°
2026-04-29 12:12 38.33389 12.76787 7902 ft 282 kts 156°
2026-04-29 12:13 38.31615 12.77838 7371 ft 278 kts 156°
2026-04-29 12:13 38.29882 12.78858 6886 ft 271 kts 156°
2026-04-29 12:13 38.28185 12.79854 6401 ft 266 kts 156°
2026-04-29 12:13 38.26522 12.80828 5918 ft 260 kts 156°
2026-04-29 12:14 38.24896 12.81782 5455 ft 255 kts 156°
2026-04-29 12:14 38.23296 12.82695 4992 ft 250 kts 157°
2026-04-29 12:14 38.21713 12.83556 4535 ft 245 kts 158°
2026-04-29 12:14 38.20157 12.84387 4092 ft 240 kts 158°
2026-04-29 12:15 38.18638 12.85196 3712 ft 230 kts 158°
2026-04-29 12:15 38.17264 12.85936 3659 ft 205 kts 157°
2026-04-29 12:15 38.16013 12.86612 3583 ft 189 kts 158°
2026-04-29 12:15 38.14820 12.87256 3510 ft 185 kts 158°
2026-04-29 12:16 38.13639 12.87894 3431 ft 185 kts 158°
2026-04-29 12:16 38.12458 12.88550 3350 ft 185 kts 151°
2026-04-29 12:16 38.11615 12.89748 3263 ft 187 kts 112°
2026-04-29 12:16 38.11582 12.91401 3008 ft 194 kts 73°
2026-04-29 12:17 38.12105 12.92959 2741 ft 187 kts 70°
2026-04-29 12:17 38.12617 12.94439 2459 ft 184 kts 71°
2026-04-29 12:17 38.13124 12.95919 2194 ft 182 kts 70°
2026-04-29 12:17 38.13627 12.97396 1953 ft 182 kts 70°
2026-04-29 12:18 38.14126 12.98870 1712 ft 182 kts 70°
2026-04-29 12:18 38.14617 13.00318 1467 ft 173 kts 69°
2026-04-29 12:18 38.15070 13.01660 1282 ft 154 kts 68°
2026-04-29 12:18 38.15470 13.02846 1063 ft 140 kts 66°
2026-04-29 12:19 38.15843 13.03963 845 ft 134 kts 66°
2026-04-29 12:19 38.16200 13.05027 704 ft 132 kts 66°
2026-04-29 12:19 38.16574 13.06098 564 ft 132 kts 65°
2026-04-29 12:19 38.16943 13.07167 377 ft 131 kts 66°
2026-04-29 12:20 38.17287 13.08228 206 ft 129 kts 66°
2026-04-29 12:20 38.17641 13.09272 81 ft 124 kts 68°
2026-04-29 12:20 38.17935 13.10149 61 ft 91 kts 67°
2026-04-29 12:20 38.18139 13.10757 65 ft 61 kts 66°
2026-04-29 12:21 38.18294 13.11216 61 ft 53 kts 66°
2026-04-29 12:21 38.18428 13.11617 65 ft 47 kts 67°
2026-04-29 12:21 38.18525 13.11887 67 ft 16 kts 40°
2026-04-29 12:21 38.18597 13.11798 62 ft 20 kts 276°
2026-04-29 12:22 38.18614 13.11606 63 ft 24 kts 272°
2026-04-29 12:22 38.18560 13.11393 63 ft 27 kts 247°
2026-04-29 12:22 38.18481 13.11161 58 ft 30 kts 247°
2026-04-29 12:22 38.18427 13.10974 65 ft 16 kts 279°
2026-04-29 12:23 38.18478 13.10846 56 ft 16 kts 288°
2026-04-29 12:23 38.18500 13.10765 59 ft 6 kts 289°
2026-04-29 12:23 38.18501 13.10714 65 ft 4 kts 259°
2026-04-29 12:23 38.18526 13.10684 61 ft 6 kts 338°
2026-04-29 12:24 38.18565 13.10665 63 ft 3 kts 338°
2026-04-29 12:24 38.18569 13.10663 63 ft 0 kts 338°